www.pogodaiklimat.ru

Погода и климат >> Архив погоды >> Россия >> Алтайский край >> Чарышское


ПОГОДА в Чарышском

  • Прогноз погоды в Чарышском
  • Монитор погоды в Чарышском
  • Климат города

АРХИВ ПОГОДЫ в Чарышском

Время (UTC), дата Ветер
(напр.,м/с)
 
Видим.   Явления Облачность Т
(С)
Тd
(С)
f
(%)
Тe
(С)
Тes
(С)
Комфортность P
(гПа)
Po
(гПа)
Тmin
(С)
Tmax
(С)
R
(мм)
R24
(мм)
S
(см)
06 23.04 СЗ 5 50 км ясно +12.6 +2.1 49 +11 +18 1020.4 969.6
09 23.04 СЗ 5
{10}
50 км ясно +14.3 -2.9 30 +13 +18 1020.2 969.8
12 23.04 СЗ 3 50 км ясно +14.5 -2.9 30 +14 +15 1021.1 970.7 +15.5
15 23.04 Ю 1 50 км ясно +6.1 -1.7 57 +5 +5 1021.3 969.4
18 23.04 штиль 0 50 км ясно +1.5 -1.6 80 +1 +1 1022.1 969.2
21 23.04 штиль 0 50 км 8/0
[Cs]
+0.8 -1.7 83 -0 -0 1021.2 968.2
00 24.04 штиль 0 50 км 10/0
[Ac As Cs]
+2.2 -0.4 83 +1 +1 1020.4 967.8 +0.3
03 24.04 СЗ 3 10 км слабый ливневой дождь 10/8 1000 м
[Cb cap Ac As]
+8.8 +3.8 71 +6 +7 1020.9 969.6
06 24.04 СЗ 1 10 км слабый ливневой дождь 10/9 1000 м
[Cb cap Ac As]
+11.1 +6.7 74 +11 +11 1020.9 969.9
09 24.04 ЮЗ 3 50 км {ливн. осадки} 8/8
[Cb cap]
+16.5 +4.7 46 +16 +18 1019.2 969.3
12 24.04 ЮЗ 1
{10}
50 км {ливн. осадки} 9/9 1000 м
[Cb cap]
+14.6 +3.6 48 +15 +15 1020.3 970.0 +17.3 1
15 24.04 Ю 1 50 км 9/9 1000 м
[Cb cap]
+9.3 +3.6 68 +9 +9 1023.5 972.1
18 24.04 СЗ 1 50 км 8/4 1000 м
[Sc Ac As Ci fib]
+8.2 +3.1 70 +8 +8 1025.2 973.5
21 24.04 штиль 0 50 км 10/4 1000 м
[Sc Ac As]
+6.5 +2.4 75 +6 +6 1026.4 974.3
00 25.04 штиль 0 50 км 9/9 1000 м
[Sc]
+4.6 +1.8 82 +4 +4 1027.8 975.2 +4.5
03 25.04 ЮЗ 1 50 км 8/4 1000 м
[Sc Ac As]
+10.1 +1.7 56 +10 +13 1027.1 975.6
06 25.04 Ю 2
{11}
50 км 9/9
[Cb cap]
+12.8 -1.5 37 +12 +14 1026.7 975.6
09 25.04 Ю 2
{12}
50 км ясно +15.4 -1.8 31 +16 +25 1024.2 973.7
12 25.04 ЮЗ 2
{13}
50 км ясно +14.8 -2.3 31 +15 +16 1024.0 973.9 +15.6
15 25.04 В 4
{11}
50 км ясно +11.3 -1.9 40 +10 +10 1025.5 974.5
18 25.04 Ю 1 50 км ясно +3.6 -1.6 69 +2 +2 1027.1 974.4
21 25.04 В 1 50 км ясно +4.0 -1.6 67 +3 +3 1024.8 972.4
00 26.04 штиль 0 50 км ясно +1.6 -1.5 80 +1 +1 1024.6 971.6 +1.1
03 26.04 ЮВ 1 50 км ясно +16.6 -0.4 31 +18 +26 1021.2 971.0
06 26.04 СЗ 4 50 км ясно +22.9 +0.4 23 +22 +32 комфорт 1025.4 976.2
09 26.04 СЗ 2 50 км ясно +25.2 -0.5 18 +23 +33 комфорт 1016.9 968.5
15 26.04 штиль 0 50 км ясно +11.9 +2.2 51 +12 +12 1020.5 969.7
18 26.04 З 1 50 км ясно +5.9 +1.5 73 +5 +5 1021.4 969.5
21 26.04 штиль 0 50 км ясно +2.7 0.0 82 +2 +2 1022.1 969.4
00 27.04 штиль 0 50 км ясно +2.0 -0.2 85 +1 +2 1022.4 969.7 +1.7
03 27.04 ЮВ 2 50 км ясно +19.7 +0.3 27 +20 +28 1018.0 968.5
06 27.04 В 2 50 км ясно +26.1 -2.8 15 +24 +38 комфорт 1015.3 967.0
09 27.04 ЮЗ 3 50 км ясно +26.5 -4.2 13 +24 +32 комфорт 1014.7 966.5
12 27.04 ЮЗ 2 50 км ясно +25.4 -2.3 16 +23 +25 комфорт 1015.0 966.7 +27.2
15 27.04 ЮВ 1 50 км ясно +14.9 +2.3 43 +16 +16 1017.6 967.5
18 27.04 штиль 0 50 км ясно +9.0 +3.3 67 +8 +8 1019.3 968.1
21 27.04 В 2 50 км ясно +7.3 +2.3 71 +5 +5 1020.4 968.7
00 28.04 СЗ 1 50 км 3/0
[Cs]
+6.2 +2.2 76 +5 +6 1021.3 969.4 +6.2
03 28.04 ЮВ 1 50 км 3/0
[Ci fib]
+20.0 +3.6 34 +22 +30 комфорт 1017.7 968.4
06 28.04 З 3 50 км 4/0
[Ac trans]
+25.0 +2.7 23 +24 +33 комфорт 1014.9 966.6
09 28.04 З 3 50 км 6/0
[Ac As]
+25.7 +1.7 21 +24 +29 комфорт 1013.9 965.6
12 28.04 СЗ 4 50 км 8/0
[Ac trans]
+24.5 +3.6 26 +24 +24 комфорт 1013.9 965.4 +26.3
15 28.04 СЗ 2 50 км 8/0
[Ac As Ci fib]
+16.4 +7.1 54 +17 +17 1018.8 968.9
18 28.04 СЗ 1 50 км 8/0
[Ac As]
+11.5 +7.6 77 +11 +11 1021.0 970.2
21 28.04 З 2 50 км 10/0
[Ac und]
+11.6 +6.7 72 +11 +11 1022.6 971.7
00 29.04 СВ 1 50 км 10/10 600 м
[Cb cap]
+10.1 +6.6 79 +10 +10 1023.7 972.4 +10.1
03 29.04 СЗ 2 20 км дым 10 баллов +9.6 +6.5 81 +8 +8 1024.6 973.3 +9.6
06 29.04 СЗ 2 20 км дым 10/10 600 м
[Cb cap]
+9.4 +6.4 82 +8 +8 1025.1 973.5
09 29.04 В 1 20 км дым {ливн. осадки} 10/10 600 м
[Cb cap]
+11.6 +7.4 75 +12 +12 1023.7 972.7
12 29.04 СЗ 2 50 км {ливн. осадки} 10/10 1000 м
[Cb cap]
+12.2 +5.4 63 +11 +11 1023.2 972.3 +12.7 0.0
15 29.04 З 2 50 км 10/6 1000 м
[Sc Ac As]
+10.5 +4.1 65 +9 +9 1024.5 973.1
18 29.04 ЮВ 2 50 км 10/4 1000 м
[Sc Ac As Ci fib]
+10.2 +3.5 63 +9 +9 1023.6 972.3
21 29.04 Ю 3 50 км 10/4 1000 м
[Sc Ac As Ci fib]
+11.3 +3.0 57 +10 +10 1021.5 970.5
00 30.04 ЮВ 2 50 км 10/4 1000 м
[Sc Ac As Ci fib]
+10.9 +2.4 56 +10 +10 1020.6 969.6 +9.7

 

Местоположение метеостанции Чарышское (Алтайский край, Россия): широта 51.38 долгота 83.58 высота над уровнем моря 429 м.

В архиве по умолчанию представлена погода в Чарышском за последнюю неделю. Архивные данные за месяц целиком и за предыдущие месяцы, начиная с января 2011 года, Вы можете получить, выбрав интересующий диапазон дат из раскрывающегося списка и нажав кнопку "Ввод!".

Внимание! Время в таблицах - всемирное. Для получения местного времени необходимо прибавить поправку, которая в Чарышском равна 7 ч.

Смотрите также архив погоды в соседних городах и на ближайших метеорологических станциях:

Погода в Солонешном (Алтайский край, Россия) (59 км)
Погода в Краснощеково (Алтайский край, Россия) (67 км)
Погода в Усть-Калманке (Алтайский край, Россия) (83 км)
Погода в Усть-Кане (Алтай, Россия) (96 км)
Погода в Змеиногорске (Алтайский край, Россия) (101 км)
Погода в Усть-Чарышской Пристани (Алтайский край, Россия) (114 км)
Погода в Белокурихе (Алтайский край, Россия) (117 км)
Погода в Риддере (Восточно-Казахстанская область, Казахстан) (117 км)
Погода в Шипуново (Алтайский край, Россия) (125 км)
Погода в Секисовке (Восточно-Казахстанская область, Казахстан) (136 км)

Пояснения к столбцам:

Ветер - указаны скорость ветра в м/с - средняя за 10 мин, порывы в срок и между сроками (в фигурных скобках) и направление, откуда дует ветер: С - северный, СВ - северо-восточный, В - восточный, ЮВ - юго-восточный, Ю - южный, ЮЗ - юго-западный, З - западный, СЗ - северо-западный.
Видимость - горизонтальная дальность видимости в метрах или километрах. При видимости от 1 до 10 км при отсутствии осадков обычно наблюдается дымка, при ухудшении видимости до 1 км и менее - туман. В сухую погоду видимость может ухудшаться дымом, пылью или мглою.
Явления - указаны атмосферные явления, наблюдавшиеся в срок или в последний час перед сроком; фигурными скобками обозначены явления, наблюдавшиеся между сроками (за 1-3 часа до срока); квадратными скобками обозначены град или гололедные отложения с указанием их диаметра в мм.
Облачность - указаны через наклонную черту общая и нижняя облачность в баллах и высота нижней границы облаков в метрах; квадратными скобками обозначены формы облаков: Ci - перистые, Cs - перисто-слоистые, Cc - перисто-кучевые, Ac - высококучевые, As - высокослоистые, Sc - слоисто-кучевые, Ns - слоисто-дождевые, Cu - кучевые, Cb - кучево-дождевые. Подробнее классификацию облаков см. в Атласе облаков (PDF).
T - Температура воздуха - температура, измеренная на высоте 2 м над землей.
Td - Температура точки росы - температура, при понижении до которой содержащийся в воздухе водяной пар достигнет насыщения.
f - Относительная влажность воздуха - влажноcть воздуха, измеренная на высоте 2 м над землей.
Te - Эффективная температура - температура, которую ощущает одетый по сезону человек в тени. Характеристика душности погоды. При расчете учитывается влияние влажности воздуха и скорости ветра на теплоощущения человека.
Tes - Эффективная температура на солнце - температура, которую ощущает человек, с поправкой на солнечный нагрев. Характеристика знойности погоды. Зависит от высоты солнца над горизонтом, облачности и скорости ветра. Ночью, в пасмурную погоду, а также при ветре 12 м/с и более поправка равна нулю.
P - Атмосферное давление - приведенное к уровню моря атмосферное давление.
Po - Атмосферное давление - измеренное на уровне метеостанции атмосферное давление.
Tmin - Минимальная температура - минимум температуры воздуха на высоте 2 м над землей.
Tmax - Максимальная температура - максимум температуры воздуха на высоте 2 м над землей.
R - Количество осадков - Количество выпавших осадков за период времени, мм. При наведении курсора мыши на число - период времени, за который выпало указанное количество осадков.
R24 - Количество осадков - Количество выпавших осадков за 24 часа, мм.
S - Снежный покров - Высота снежного покрова, см. При наведении курсора мыши на число - состояние снежного покрова и степень покрытия местности в баллах.